Location: Montreal
(45.5087°N, 73.5540°W)
Time: 18:17:39
(UTC-04:00)

Envisat - Pass Details

Date: 06 February 2023
Orbit: 763 x 765 km, 98.2° (Epoch: 20 March)

Event Time Altitude Azimuth Distance (km) Brightness Sun altitude
Rises 03:51:16 0° 16° (NNE) 3,242 6.6 -34.9°
Reaches altitude 10° 03:53:36 10° 19° (NNE) 2,311 5.8 -34.5°
Enters shadow 03:55:32 23° 24° (NNE) 1,581 4.9 -34.2°
